カタログに戻る

FENGYUN 1C DEB

運用中SSO
NORAD 38116·DEBRIS·🇨🇳 China

打ち上げ May 10, 1999 から Taiyuan Satellite Launch Center

Loading…

次のパス (今後24時間)

TLE

最新Source: Space-Track

元期: Sep 14, 2026, 08:41 UTC

1 38116U 99025EPM 26257.36223590  .00000351  00000-0  18937-3 0  9996
2 38116  98.6863 295.2093 0072009  76.9100 349.6647 14.17487217683897

AllMySatでFENGYUN 1C DEBをリアルタイム追跡

Download on the App Store